Theta_e
320 313 312 311 313 316 317 318 318 318 317 316 315 315 314 315 316 317 318 328 327 320 319 322 323 322 324 325 333 338 338 338 337 337 336 335 335 336 337 338 339 341 342 346 347 348 351 353 355 356 357 357 358 358 356 351 357 354 351 353 352 354 357 355 352 351 350 348 348 346 343 340 340 341 340 339 339 338 337 340 340 340 338 339 339 339
317 311 312 314 316 316 317 318 317 316 316 315 315 314 313 314 313 317 316 324 327 317 316 320 322 323 324 327 331 340 338 335 335 337 338 335 335 337 338 338 340 342 345 345 346 347 351 353 354 356 356 357 356 356 357 353 354 355 355 354 352 351 353 355 354 351 350 349 347 345 342 341 339 338 338 338 337 336 338 340 340 339 338 338 338 337
311 309 313 316 318 317 316 315 315 314 313 315 313 313 312 313 315 316 317 318 322 319 318 322 320 320 323 326 331 338 337 337 336 337 340 339 336 337 338 338 340 342 344 345 347 349 351 354 354 354 356 356 356 355 357 355 355 355 355 353 354 352 352 355 354 353 351 351 351 348 344 341 339 340 341 338 336 338 338 337 338 338 338 337 335 335
308 311 315 317 316 315 314 314 314 313 313 312 313 311 310 314 311 310 316 318 322 317 316 321 318 319 325 329 331 338 338 338 339 338 339 342 338 337 339 339 340 342 344 345 347 347 351 354 354 355 355 355 355 356 356 355 355 355 354 352 354 354 353 351 354 353 352 352 352 349 345 343 341 340 339 337 337 337 337 335 337 338 336 335 333 333
310 313 315 314 314 313 311 312 312 311 310 313 313 312 311 312 313 312 312 315 319 320 321 321 318 315 317 317 320 337 339 337 338 339 339 342 342 340 343 342 342 344 345 347 347 349 351 352 352 353 355 355 353 354 354 354 354 354 355 354 354 354 355 354 352 351 350 349 347 346 344 343 339 337 335 335 334 336 336 336 336 335 335 334 333 332
311 315 315 312 312 311 311 310 311 311 309 311 314 313 313 314 312 313 314 313 312 312 323 317 307 307 314 315 319 335 335 335 338 339 338 340 342 341 339 341 343 347 349 348 347 350 353 354 353 354 355 355 353 353 354 354 355 354 354 355 355 354 354 353 353 351 349 347 343 340 338 334 333 332 332 332 333 333 334 333 335 335 334 333 333 332
312 315 313 311 311 310 310 309 311 312 309 309 311 315 314 313 313 313 312 311 308 306 318 319 307 304 313 312 318 333 332 334 338 339 339 341 343 341 340 342 342 345 347 349 349 352 354 355 354 354 353 354 353 350 352 354 354 355 354 355 354 353 353 352 353 352 350 347 343 340 337 335 334 333 335 337 337 335 335 336 333 331 332 332 330 330
313 312 311 311 310 309 308 308 311 312 309 307 314 314 313 312 311 311 311 311 310 314 316 317 314 308 307 312 330 331 328 329 333 337 339 340 343 341 341 342 345 347 350 349 349 353 355 356 355 353 355 353 354 355 354 353 354 354 355 355 354 354 352 351 351 351 350 346 343 341 338 338 335 337 337 337 337 337 336 333 332 331 330 330 329 329
311 309 309 309 309 308 307 310 312 313 309 309 313 312 311 312 311 311 311 310 311 310 307 311 318 309 306 313 319 332 326 324 332 334 338 341 342 343 342 341 344 348 350 350 349 352 354 355 356 355 355 356 354 355 354 353 355 353 355 354 354 353 352 350 351 351 349 346 343 340 339 338 338 338 337 337 336 335 335 332 331 330 328 326 328 329
312 311 311 310 309 307 310 312 312 312 308 311 313 313 312 312 311 311 310 310 310 309 305 308 312 306 305 311 313 332 322 317 318 318 322 341 342 342 342 342 343 348 350 351 351 354 355 357 357 357 357 356 355 356 355 354 354 353 354 353 352 351 351 350 351 350 347 345 344 341 340 339 337 336 337 336 334 334 333 332 330 329 328 323 324 326
311 314 314 310 308 310 311 312 311 311 311 313 311 310 310 310 310 312 311 311 308 303 306 309 310 309 303 309 311 311 312 315 317 321 333 339 341 342 343 343 343 346 349 350 351 355 357 358 358 358 356 355 356 356 354 353 353 352 350 351 352 351 351 351 350 347 346 346 344 342 341 340 337 336 336 334 334 333 333 331 327 326 324 325 324 324
311 312 311 312 314 313 312 309 312 312 312 311 308 307 307 307 310 309 309 313 302 300 307 311 310 311 303 308 313 317 318 317 319 320 327 333 336 340 342 342 344 347 349 351 352 354 356 356 357 356 354 354 355 355 352 351 351 351 350 351 349 349 348 349 348 347 345 342 342 342 341 339 338 338 335 334 333 333 332 330 327 326 324 324 324 326
307 309 312 312 316 312 310 308 309 310 311 309 308 308 302 301 303 299 303 301 301 300 307 311 311 307 307 312 315 316 316 318 329 329 329 327 333 338 339 342 344 346 349 350 352 354 353 352 351 353 353 353 354 353 352 350 350 349 351 350 347 345 346 346 346 346 346 341 342 345 343 340 339 337 336 334 333 333 331 328 327 326 323 323 325 324
306 310 310 311 311 314 311 305 306 305 308 307 305 304 301 298 298 296 300 303 302 306 310 309 314 306 310 312 316 315 322 329 331 332 332 331 332 337 338 341 343 346 349 350 352 354 352 351 350 351 353 352 353 353 351 349 349 348 349 349 346 345 346 345 346 346 344 343 342 343 340 338 336 336 336 334 333 332 330 328 326 325 323 324 323 323
300 301 306 308 305 313 311 309 309 308 308 307 309 307 304 303 299 296 299 297 299 303 307 311 306 304 304 308 316 320 324 328 330 331 333 334 336 338 338 341 344 347 349 351 353 352 351 350 351 351 353 352 352 352 349 348 349 348 348 347 347 346 346 346 345 343 341 341 341 342 340 338 337 335 334 334 334 332 328 327 325 325 323 323 324 325
302 303 309 312 311 312 309 312 312 310 308 310 310 310 305 303 308 300 303 303 303 303 303 308 304 309 309 316 317 326 326 330 331 332 335 336 336 338 339 341 343 346 348 350 351 350 351 350 352 352 352 351 351 350 347 347 347 348 348 349 347 344 346 345 344 342 341 340 340 339 338 337 337 336 334 334 333 331 329 327 326 326 327 325 325 327
304 301 309 310 311 310 311 313 312 312 301 307 308 303 306 312 308 305 305 306 305 302 300 307 306 309 314 314 316 327 325 331 331 331 332 335 337 339 339 341 344 346 349 350 349 347 349 349 350 351 351 351 350 347 346 347 348 349 348 348 346 344 343 342 342 340 340 339 339 337 336 335 335 332 332 329 328 326 327 328 326 324 325 326 327 326
302 303 309 308 306 311 312 312 312 313 312 309 303 307 312 313 311 306 299 304 301 297 301 305 303 305 305 303 318 326 324 330 331 332 333 337 337 336 339 342 345 347 349 349 350 348 349 349 349 350 349 351 350 347 347 348 349 349 348 347 343 340 340 341 340 339 340 339 338 337 335 334 333 331 329 328 327 327 327 327 327 327 325 326 325 326
309 301 306 309 308 309 310 310 309 312 313 309 307 314 305 301 300 305 303 296 297 297 300 303 305 305 306 308 311 312 319 325 333 333 334 333 335 338 341 344 346 347 346 346 345 346 347 347 348 349 348 352 351 348 348 348 347 347 346 347 344 342 342 343 342 340 339 338 336 335 333 331 331 330 329 328 328 328 326 324 324 326 327 326 327 327
309 301 304 308 308 309 309 308 303 306 311 311 312 309 312 309 306 303 304 304 305 298 298 301 304 302 311 311 311 313 327 333 332 332 332 333 337 342 342 343 344 344 343 344 344 345 346 347 349 348 347 349 349 347 347 346 345 345 344 345 344 343 341 341 341 338 337 336 335 332 332 333 333 332 329 327 326 323 324 324 326 325 324 325 326 327
307 310 300 305 309 308 304 307 305 307 304 306 306 305 308 307 311 309 309 305 302 301 301 300 299 305 316 323 322 327 331 334 334 334 336 337 340 343 343 342 342 342 342 344 345 346 347 348 348 345 346 349 348 346 346 345 344 342 341 339 339 338 338 338 338 337 335 334 332 332 331 332 331 329 328 326 324 322 323 325 326 325 326 327 327 326
307 307 301 305 305 305 307 310 310 309 310 308 306 305 307 305 303 300 300 308 305 302 300 300 299 308 327 336 332 334 338 338 340 337 338 340 341 341 341 341 341 341 343 344 345 347 346 347 345 343 345 347 345 344 344 343 342 340 338 335 335 336 336 335 334 335 334 332 331 330 330 330 329 328 327 325 324 323 323 324 325 325 326 325 327 328
311 310 306 303 305 307 309 311 312 312 311 310 310 307 309 309 308 304 297 303 306 305 306 305 302 306 328 338 337 336 339 339 340 340 339 339 340 341 341 340 341 342 343 343 345 346 346 346 342 341 341 341 342 343 343 342 340 337 336 334 334 333 333 333 332 332 332 330 329 327 327 326 327 325 325 323 324 324 323 324 325 327 325 324 326 327
327 307 304 304 308 310 311 312 312 311 311 308 309 311 309 307 308 306 306 308 305 305 303 303 302 307 330 339 341 338 340 339 341 341 339 338 338 339 340 340 342 342 343 345 346 346 346 342 340 339 340 340 341 341 341 340 337 335 334 333 332 331 330 330 329 329 329 328 326 325 324 324 325 326 324 324 324 324 324 324 325 326 325 327 327 325
305 308 306 303 303 305 307 311 310 311 310 308 308 309 310 310 310 310 310 311 305 305 305 303 298 304 330 338 339 338 338 337 337 337 338 336 337 338 339 340 341 343 343 343 343 345 344 339 337 337 339 340 339 339 339 336 335 332 330 329 330 331 330 330 330 329 329 328 326 324 324 324 326 326 325 325 325 325 324 325 324 325 325 326 326 327
308 309 306 301 299 297 297 299 302 304 307 310 312 310 310 309 308 307 304 307 301 310 308 304 304 316 328 338 336 336 338 337 337 336 338 338 337 336 338 339 340 342 342 341 341 341 339 338 337 337 337 338 337 337 336 335 333 332 330 330 331 330 329 329 330 329 328 326 324 325 325 326 328 326 325 324 324 325 325 325 325 325 324 326 326 328
309 313 310 308 306 304 307 309 310 314 310 307 310 312 310 310 311 311 310 306 303 309 307 309 308 310 317 330 334 334 337 337 335 336 335 335 335 338 340 340 340 341 341 339 340 341 339 339 336 335 336 336 336 336 336 334 332 330 331 331 330 329 329 330 330 330 327 325 324 325 326 326 325 325 324 323 324 325 325 325 324 325 325 327 327 327
312 308 309 309 309 309 309 310 312 312 309 310 309 310 312 312 312 310 307 305 313 306 302 314 326 312 315 322 330 335 337 338 336 337 335 336 336 336 337 339 340 341 340 340 341 340 338 336 335 334 334 334 334 336 334 332 330 329 329 328 329 330 331 330 330 328 326 326 325 327 325 325 324 324 324 325 326 326 325 325 326 326 328 328 329 327
309 306 309 309 308 309 309 310 312 313 313 312 311 310 310 311 311 309 309 312 312 307 306 318 322 315 319 325 331 337 339 339 337 337 337 338 337 338 339 338 339 339 339 338 339 339 337 335 334 333 332 331 332 333 335 332 330 331 330 331 331 331 331 332 330 327 325 326 326 325 325 325 325 324 325 326 326 326 325 325 326 328 328 328 328 327
315 308 311 309 308 308 311 312 314 312 312 312 312 312 312 311 310 311 312 314 315 316 318 320 320 319 323 327 335 338 341 341 338 339 338 337 335 336 338 337 336 336 335 336 336 338 339 338 335 332 330 329 329 331 331 331 332 332 331 331 332 333 333 332 329 328 327 326 325 325 326 325 326 325 325 326 325 326 327 326 327 326 327 328 329 330
312 312 312 309 309 309 312 313 313 313 312 310 312 313 314 313 314 316 315 315 316 317 318 321 319 317 329 339 342 343 343 341 339 337 337 338 337 336 336 336 336 336 337 338 338 336 334 333 335 333 330 328 328 330 332 334 333 333 332 332 334 334 334 332 329 329 326 326 325 326 327 325 326 327 326 326 325 327 327 327 327 328 328 328 329 330
312 314 314 310 307 307 311 311 311 312 311 310 310 311 312 311 310 313 313 318 314 315 314 314 312 314 334 341 343 343 342 340 338 337 337 337 336 335 333 335 337 336 336 336 336 335 333 332 333 332 329 327 327 329 330 331 330 331 332 334 334 334 333 331 330 329 328 327 327 327 326 324 326 326 325 326 326 327 327 326 326 326 328 328 329 330
313 312 309 309 305 305 312 312 310 310 309 306 308 310 312 315 317 316 317 319 322 320 313 310 315 326 336 339 340 340 340 339 339 338 338 338 338 334 334 336 338 337 336 336 335 336 335 335 334 331 327 326 326 328 331 331 330 330 332 333 333 333 331 330 330 329 328 327 328 328 326 326 325 326 326 326 326 327 325 327 325 326 326 326 329 330
317 314 310 312 305 306 310 311 312 306 300 302 319 321 319 315 316 313 312 317 324 322 321 322 325 333 336 338 334 331 338 338 340 341 342 341 340 339 338 340 340 339 338 338 339 338 338 337 334 332 329 328 328 329 331 331 330 330 331 333 334 332 331 331 330 329 329 328 328 327 326 325 325 325 325 326 325 325 324 325 325 325 325 326 329 329
312 313 311 314 307 305 311 311 305 299 301 318 321 323 322 321 321 317 320 319 319 324 324 324 325 333 335 338 342 343 341 341 342 341 341 343 344 342 340 340 340 340 340 340 340 339 339 338 335 333 329 329 330 332 331 330 329 329 330 332 331 331 331 331 329 328 329 328 328 327 326 326 325 324 325 326 325 325 323 323 324 324 325 325 327 328
313 311 314 311 311 312 308 306 298 300 315 317 321 324 326 322 323 321 316 318 320 321 323 323 328 336 340 342 343 344 342 341 342 344 344 344 345 343 341 340 340 341 341 342 341 341 340 338 335 331 329 331 332 330 329 328 328 328 328 329 329 329 329 330 329 328 329 328 328 327 327 327 326 325 325 325 325 323 323 323 324 324 325 325 326 326
317 314 312 309 316 304 305 305 303 313 310 312 313 319 319 317 319 316 310 318 320 320 323 324 333 338 341 342 342 342 342 342 340 341 345 345 344 344 344 343 344 344 344 345 343 342 343 341 338 335 333 332 331 331 330 331 329 328 327 326 326 328 329 329 328 328 328 329 328 329 329 328 326 325 325 324 323 324 322 323 324 324 326 325 324 326
323 313 313 309 309 312 307 303 305 304 300 307 321 325 326 325 324 325 318 314 320 321 323 327 335 339 341 342 341 342 343 337 331 337 343 345 344 344 345 346 346 348 348 346 344 343 342 341 340 337 334 333 332 332 332 333 330 328 325 326 327 329 330 331 330 329 329 328 328 328 329 329 327 326 325 324 324 323 323 323 325 324 325 324 324 325
320 322 319 309 309 308 307 303 302 301 305 318 320 323 325 327 323 325 315 310 326 326 330 334 336 339 340 340 339 341 337 325 329 336 342 345 344 345 346 348 346 347 347 345 343 341 341 340 339 337 336 334 333 333 334 333 331 327 326 326 328 329 329 328 329 330 329 328 329 329 327 328 328 328 326 325 324 322 323 325 324 325 325 325 326 327
314 313 313 309 307 308 307 303 302 307 306 318 321 322 324 328 324 319 306 307 325 330 333 334 335 336 339 341 341 340 331 324 329 336 342 344 345 346 348 346 344 344 343 344 344 343 342 341 338 336 335 333 333 333 332 332 330 329 328 328 329 328 328 328 329 330 331 330 330 330 330 329 328 328 327 326 325 324 323 325 324 325 325 326 327 326
310 311 311 307 307 309 308 305 307 308 321 321 322 325 327 326 322 309 303 319 331 333 337 337 339 340 342 341 340 334 338 339 340 342 343 345 345 346 347 347 344 343 342 342 342 341 340 338 337 335 335 334 334 333 333 332 330 329 330 330 330 328 328 329 330 330 330 331 331 330 330 329 329 327 327 326 324 324 323 324 324 325 325 326 328 327
310 311 313 312 307 306 307 304 305 309 323 325 326 326 327 319 309 307 324 331 335 335 338 339 339 342 343 343 341 341 341 343 343 343 345 347 346 346 345 344 343 342 343 343 342 340 340 338 338 337 336 335 333 334 334 332 330 330 331 331 330 330 331 330 330 330 331 331 330 330 330 329 329 327 325 325 325 324 323 325 325 325 325 326 327 327
310 308 307 307 310 310 311 306 303 299 321 326 325 324 325 316 321 329 334 334 335 335 337 338 340 340 343 344 345 344 344 345 345 345 346 348 346 345 344 342 341 340 340 340 339 341 339 338 337 337 336 336 334 335 335 334 331 331 331 331 332 332 330 328 329 330 331 331 329 329 329 329 329 326 324 323 324 324 323 324 325 326 327 328 328 327
323 308 307 309 313 305 305 303 304 320 324 328 324 318 323 328 333 336 333 333 332 336 336 339 341 343 344 346 343 344 345 345 345 347 347 348 346 345 344 343 343 342 340 341 341 340 339 338 338 337 337 337 336 336 335 334 332 332 332 331 333 332 330 329 331 332 331 330 329 330 329 329 328 326 325 325 325 325 325 325 327 326 325 328 327 325
322 319 324 310 319 312 313 319 325 330 327 328 330 329 333 336 338 335 336 333 334 334 338 337 341 343 345 347 345 345 343 345 346 347 346 345 345 345 343 342 342 340 339 338 338 339 338 337 337 336 336 336 337 337 336 334 334 333 332 333 331 330 329 329 330 331 330 329 329 330 330 329 327 325 325 324 324 324 324 325 326 324 326 328 327 326
325 327 327 325 320 326 328 331 331 330 329 329 330 335 332 332 337 336 334 333 336 340 338 338 337 340 344 348 344 344 343 345 347 346 345 344 343 343 343 343 342 341 340 339 339 338 338 338 338 337 335 336 336 336 335 335 335 333 333 333 331 331 331 330 331 331 330 328 330 330 331 328 326 326 326 325 325 325 325 324 323 324 324 326 326 325
324 322 322 319 325 316 311 326 328 329 331 331 331 335 338 337 337 340 338 339 338 340 339 341 342 342 344 346 345 344 344 344 345 344 344 343 341 342 342 342 341 340 339 338 338 337 338 337 336 335 335 334 335 334 333 334 335 336 337 333 332 331 331 332 332 331 330 330 331 331 330 328 325 323 324 324 326 326 326 325 325 325 325 325 324 325
318 328 324 323 321 319 324 328 330 332 335 335 334 332 331 335 337 339 340 341 345 344 342 343 342 342 344 343 345 345 344 344 343 343 342 341 340 342 342 341 340 339 340 340 339 338 338 337 336 335 334 334 335 335 332 332 335 337 336 334 332 331 332 332 332 330 330 328 328 326 327 324 322 322 322 324 325 324 324 326 326 324 324 324 324 324
329 327 318 321 320 325 330 330 329 330 331 331 334 341 340 338 339 339 342 342 341 341 343 344 345 342 342 344 347 345 343 342 341 342 340 340 340 341 341 340 340 340 339 338 338 339 337 337 335 335 334 334 336 335 334 334 335 337 336 335 334 334 333 332 331 330 329 328 325 324 326 324 324 324 323 324 326 326 327 326 325 325 326 327 328 327
322 317 323 321 320 317 319 325 328 321 321 327 331 334 338 341 339 340 341 340 340 342 343 341 342 344 344 345 345 343 341 341 342 344 340 339 341 342 341 340 340 339 339 339 338 339 338 337 335 334 333 335 337 337 336 336 336 336 335 335 335 334 333 333 330 330 327 326 325 325 324 324 323 324 324 324 324 325 326 327 326 324 328 327 329 328
321 327 320 318 316 314 324 329 332 332 332 332 333 336 339 339 341 340 341 340 341 344 343 342 341 342 343 343 344 342 341 342 343 344 341 338 341 342 341 341 339 338 337 338 338 337 337 336 335 335 334 335 337 337 336 336 335 335 335 335 335 335 335 333 330 327 325 326 325 323 324 323 324 324 326 325 323 325 324 325 329 311 313 319 328 321
Wind_Speed
2 9 9 10 10 11 12 11 8 8 7 10 10 9 8 8 7 3 3 7 5 6 8 9 12 14 13 9 8 12 12 12 12 13 12 11 12 13 13 13 13 13 12 11 11 12 12 12 11 10 10 9 9 9 13 12 10 11 9 9 8 8 9 9 8 8 8 7 7 6 6 5 5 4 4 3 3 4 4 4 3 3 4 4 4 4
7 11 12 12 13 7 5 4 5 8 7 11 11 10 9 8 8 4 5 5 3 6 7 6 10 13 14 9 6 13 13 14 15 14 14 14 14 12 14 14 13 12 9 11 11 12 13 11 12 11 10 11 10 9 11 11 10 12 13 12 11 10 9 9 9 8 8 7 6 6 6 5 5 5 4 4 3 4 3 3 3 3 4 4 4 4
9 13 13 14 6 2 6 6 6 9 10 10 10 10 9 8 9 7 3 3 3 5 6 6 10 13 13 9 7 14 15 12 13 15 15 15 15 13 13 14 14 12 12 11 11 12 12 13 13 11 11 11 11 11 11 13 11 12 12 12 12 11 11 8 9 8 8 8 7 6 6 5 5 4 3 5 5 4 3 3 4 4 4 4 4 4
13 13 17 11 3 6 8 8 8 9 10 11 11 10 11 8 7 5 8 3 5 5 7 5 11 11 14 8 8 12 13 12 13 15 15 14 15 16 16 15 14 15 13 13 13 14 13 13 13 12 11 12 11 11 11 12 14 11 10 12 11 12 11 10 11 10 9 9 8 8 6 4 3 5 6 6 5 5 3 3 3 4 4 4 4 4
13 1 7 5 4 8 13 11 11 10 12 13 14 13 11 10 9 9 4 4 3 8 5 5 9 10 5 5 4 11 12 11 11 13 14 14 14 15 13 14 14 16 16 14 14 14 15 15 14 13 13 12 12 11 13 13 12 10 12 12 12 12 12 12 12 11 11 11 10 8 7 6 5 5 5 5 5 4 3 2 3 4 4 4 4 4
16 9 2 1 4 6 8 10 11 12 13 13 14 13 14 14 13 13 10 6 8 7 7 5 8 7 7 7 7 7 9 11 11 13 15 14 14 15 16 16 15 14 15 16 16 15 15 15 15 14 15 14 13 13 12 12 12 13 13 13 13 11 11 12 13 12 11 11 11 9 8 7 6 6 5 4 4 4 3 3 3 4 3 3 3 3
10 3 5 10 11 12 12 12 11 8 11 13 10 9 12 13 13 12 11 8 9 10 4 2 6 10 8 11 5 6 6 9 10 13 14 14 14 16 15 15 15 16 15 15 15 15 16 16 16 16 16 16 15 12 9 11 13 15 15 15 15 14 11 12 13 14 11 12 9 9 8 6 5 5 4 4 4 4 4 3 3 3 3 3 3 3
11 11 11 11 13 13 12 12 11 9 10 13 9 6 6 9 10 11 11 10 10 10 3 6 7 10 10 6 2 3 5 7 10 13 14 14 16 16 16 16 16 16 16 15 16 17 17 17 17 18 18 16 14 12 10 14 14 16 14 13 14 11 11 10 11 13 12 11 9 8 7 6 5 5 5 6 5 4 4 4 3 2 2 2 3 3
7 9 12 13 12 12 13 12 9 10 11 10 1 3 8 8 8 8 9 10 11 8 10 7 4 8 10 4 5 7 8 7 8 10 13 15 16 16 17 17 17 17 17 17 16 18 18 18 17 17 17 16 15 13 14 15 14 14 13 12 11 11 11 11 14 12 12 10 10 8 6 7 4 5 6 5 5 5 4 4 2 2 2 3 3 3
4 3 3 8 8 10 10 10 7 8 11 10 15 6 8 6 7 9 9 10 10 7 12 12 7 7 12 10 6 7 8 6 10 6 7 14 16 16 16 17 17 16 15 16 17 17 17 17 17 16 16 16 14 12 15 16 13 12 12 13 13 12 10 11 13 12 13 12 9 7 7 8 6 6 6 5 5 5 4 4 3 2 0 3 4 5
4 2 4 5 8 7 6 4 5 10 13 6 2 6 6 7 8 6 7 8 9 13 12 16 9 7 12 11 7 9 8 9 9 3 4 8 13 14 15 16 15 15 15 14 16 16 17 16 17 17 17 18 15 14 15 13 11 12 13 15 15 13 11 12 12 13 12 10 8 6 9 8 8 8 7 6 6 5 4 4 3 2 2 2 3 4
12 8 7 6 10 8 5 8 5 6 8 6 8 9 9 10 5 8 8 5 10 13 12 6 10 10 13 8 8 7 12 13 8 7 5 2 9 12 13 14 15 15 15 16 16 17 18 17 17 17 17 17 17 16 15 13 13 11 13 15 15 13 12 12 12 13 12 9 8 7 9 9 8 8 7 7 7 6 5 4 3 2 2 3 3 2
13 13 10 12 8 12 9 9 7 7 7 8 8 8 10 8 7 9 9 10 11 13 6 3 5 8 12 10 12 16 14 11 2 6 6 5 4 9 11 13 13 14 16 16 16 17 17 17 18 18 18 18 17 16 16 14 13 13 12 14 15 15 14 13 13 14 11 9 5 5 7 8 8 8 7 7 7 6 5 4 4 3 3 2 2 3
8 11 13 13 10 12 12 10 7 8 9 9 10 9 10 10 10 9 9 9 9 9 2 6 3 11 10 13 12 12 6 4 5 4 3 2 2 8 9 11 12 14 15 15 16 17 18 17 18 19 17 17 15 17 15 15 13 13 12 14 15 15 15 14 13 12 12 10 9 9 11 9 8 7 7 6 6 6 4 4 4 3 3 3 3 4
8 9 12 13 9 12 14 14 11 6 6 10 9 10 10 9 8 10 8 10 9 8 3 4 6 6 11 5 9 4 2 3 3 4 4 1 2 5 7 10 12 13 14 14 15 17 18 19 20 19 16 15 15 15 15 15 14 14 14 15 15 15 15 14 13 12 11 10 11 11 10 9 8 8 7 6 5 5 5 4 4 3 4 4 4 3
9 10 4 9 4 7 12 15 15 13 10 7 9 10 11 11 6 11 6 7 7 6 4 8 6 10 10 9 9 3 2 2 4 4 4 4 3 6 8 10 11 12 13 14 15 17 18 19 19 17 16 15 14 16 15 16 15 14 15 15 15 16 14 13 12 10 9 9 9 10 10 9 8 7 6 6 5 5 5 4 4 4 2 4 4 4
6 8 7 6 5 8 8 7 12 12 9 7 8 10 10 7 8 7 9 10 12 10 12 10 7 9 5 10 3 3 1 2 4 5 5 5 5 6 7 8 9 10 12 12 14 16 17 18 18 16 17 15 14 15 15 15 15 15 14 14 14 13 13 13 13 12 11 11 11 11 11 9 9 9 8 7 8 7 6 5 5 5 4 4 4 4
8 4 7 5 9 10 2 3 6 11 11 1 9 9 3 2 7 7 9 4 8 9 6 3 9 9 5 5 3 5 2 4 5 5 6 5 5 6 6 6 7 9 11 12 13 15 17 17 18 16 16 15 16 15 15 15 14 13 12 14 15 14 14 13 13 12 11 12 11 10 11 10 9 8 8 8 8 7 6 6 4 5 5 5 4 3
6 10 8 5 1 7 5 6 7 8 7 10 5 6 8 9 11 9 7 10 8 8 7 6 3 8 6 7 7 3 6 5 5 4 3 4 5 5 6 7 8 9 10 11 13 13 15 15 17 15 16 12 15 15 15 14 13 13 12 13 15 14 14 13 11 12 11 11 9 9 10 11 8 7 7 7 7 6 7 7 6 5 4 5 5 4
4 9 3 4 4 6 8 8 8 9 11 13 8 8 4 6 7 7 9 8 5 9 5 5 3 8 3 3 6 6 4 5 4 2 1 3 5 5 6 7 9 9 9 10 11 12 13 15 17 15 15 15 15 14 14 15 13 15 14 14 14 13 12 13 13 12 12 11 10 10 9 8 7 7 8 8 8 8 7 7 6 6 7 6 4 4
7 5 7 8 5 6 8 8 8 9 11 11 11 10 7 8 3 8 2 7 6 7 6 6 7 5 5 5 5 5 6 6 5 2 3 3 5 6 7 7 8 8 9 10 12 13 14 15 16 14 14 13 12 13 14 14 14 15 13 14 13 14 15 13 12 12 11 10 11 11 10 10 8 9 8 9 8 8 8 8 7 6 5 5 5 4
7 6 8 4 8 8 3 7 5 7 4 10 11 11 10 9 9 9 8 6 8 6 7 6 7 5 5 3 4 5 4 4 4 2 3 6 6 6 7 7 7 8 8 10 11 12 13 15 14 13 13 11 13 14 14 13 14 14 12 12 12 12 12 13 12 11 11 11 11 11 10 10 9 9 8 8 8 8 9 8 6 7 7 7 6 4
8 3 7 7 6 2 7 2 3 6 7 9 8 11 12 10 8 8 6 6 6 8 7 8 8 4 3 4 2 4 4 4 4 2 5 6 7 6 6 6 6 7 8 9 11 11 12 13 13 14 15 15 14 14 14 14 13 13 13 13 12 11 12 12 12 11 10 10 11 11 10 10 9 10 10 10 8 9 9 9 8 7 7 8 7 6
2 6 7 8 6 7 1 3 2 4 6 9 9 8 8 11 10 9 7 5 5 3 6 5 8 3 5 1 2 2 3 3 4 4 6 6 6 7 5 6 6 6 7 9 10 10 11 11 12 11 13 13 13 14 14 13 12 12 11 12 12 13 13 13 12 11 10 11 12 11 11 11 10 11 10 10 9 9 9 9 7 7 7 6 5 6
8 7 7 5 6 6 6 5 5 4 6 6 6 9 8 7 7 5 4 1 9 5 9 7 8 3 4 1 2 2 3 5 6 6 5 6 6 6 6 6 6 6 7 8 10 10 12 12 12 10 10 10 10 11 12 13 11 11 11 11 12 13 14 13 12 11 11 11 12 12 11 11 11 11 11 10 9 9 9 8 7 7 7 6 6 5
8 6 8 8 7 6 7 9 8 8 7 4 1 5 7 8 8 6 9 5 7 0 5 8 8 4 4 3 4 3 3 4 6 7 7 6 6 6 6 7 7 7 8 9 10 12 12 11 11 11 12 10 11 13 13 12 12 12 12 13 12 13 12 12 11 11 11 11 11 11 11 11 11 11 11 10 10 9 8 7 7 6 7 5 5 4
6 3 8 9 7 4 6 8 5 3 5 7 6 5 8 9 7 9 6 6 9 2 6 7 9 9 2 4 4 3 2 4 5 6 6 6 6 6 6 7 8 8 10 10 11 10 10 10 13 14 14 13 12 14 10 11 11 12 11 12 13 12 12 13 12 11 11 11 11 11 11 11 11 10 10 10 9 8 7 7 7 6 6 5 4 4
5 7 9 12 10 5 4 4 4 3 4 3 5 5 5 7 8 9 8 6 3 6 11 4 5 7 5 6 6 5 5 5 5 5 6 6 6 7 7 7 8 8 10 10 11 11 11 9 10 12 13 13 13 14 13 10 11 12 11 12 12 12 12 10 12 11 11 10 10 10 11 10 11 10 9 8 9 8 7 6 6 6 5 4 4 4
7 8 9 9 8 3 3 3 2 2 2 2 3 5 6 6 8 10 8 4 6 7 7 3 2 3 5 7 7 7 5 6 6 6 6 7 7 7 8 8 9 9 9 10 8 7 8 8 7 10 12 12 14 16 16 12 11 11 11 12 12 12 12 11 11 11 11 10 10 10 10 9 9 9 9 8 8 8 7 6 6 5 5 4 4 3
4 7 6 8 6 4 3 4 4 5 4 5 4 3 4 7 7 6 4 1 3 3 3 3 3 4 7 8 8 7 7 8 9 7 7 7 7 6 7 6 7 8 9 9 9 9 9 8 9 9 10 11 14 12 13 12 12 12 12 12 12 11 11 11 11 11 10 10 9 9 9 9 8 9 9 9 8 7 6 6 6 6 5 5 4 3
7 3 5 8 7 6 4 5 5 5 5 6 3 3 5 4 4 2 1 2 2 4 1 2 5 1 6 4 6 7 7 8 7 8 7 7 8 7 7 7 9 9 11 11 11 10 9 8 8 10 10 7 7 8 7 8 11 12 12 12 12 11 11 11 11 10 10 9 9 9 9 9 9 9 9 8 8 7 7 6 6 5 5 4 4 3
8 2 5 7 7 7 5 6 7 5 6 4 4 5 5 7 7 4 4 1 5 4 4 5 8 4 4 5 6 7 7 7 8 7 7 7 8 8 9 9 11 11 13 13 14 14 12 12 10 10 9 9 8 7 6 5 4 6 8 10 11 11 11 10 10 9 9 9 9 9 9 9 9 9 9 8 8 8 7 7 6 6 6 5 4 4
7 5 7 8 8 5 4 5 4 5 4 5 6 6 4 1 2 2 1 1 3 3 7 7 6 5 5 2 5 6 7 7 7 6 6 8 9 10 10 11 12 13 14 14 14 14 14 13 12 12 12 13 12 9 7 8 6 6 8 10 10 10 10 10 9 9 9 8 9 9 9 8 9 9 9 9 8 8 8 7 7 7 6 6 5 4
5 7 7 5 7 4 5 5 5 5 6 1 5 5 1 2 1 6 3 1 1 3 5 5 4 5 3 3 4 6 6 7 7 5 5 7 9 11 11 11 12 13 14 14 15 16 16 15 12 12 10 10 12 15 12 8 10 8 8 8 9 11 10 10 9 9 8 8 8 8 8 8 9 9 9 9 9 8 8 8 7 7 6 5 5 4
9 9 5 4 5 5 6 6 6 7 4 6 3 3 1 1 3 5 4 4 3 2 3 3 1 3 5 5 8 9 9 7 7 7 7 8 7 8 9 9 10 13 14 16 16 17 18 17 16 15 15 12 11 10 11 10 9 8 8 8 10 10 10 9 9 9 8 8 8 8 8 8 9 9 9 9 9 9 8 8 7 7 6 6 6 6
8 9 5 6 3 2 5 5 8 3 7 4 4 3 3 2 1 3 7 6 3 4 3 4 2 4 6 8 8 8 7 8 6 5 7 7 7 6 8 9 12 13 14 13 15 16 16 18 19 17 16 15 14 11 15 15 12 11 10 9 9 9 9 10 9 10 9 9 9 9 9 8 9 9 9 9 9 9 9 8 8 7 6 5 6 5
9 6 7 4 2 6 5 6 4 1 6 6 6 7 5 5 4 5 7 2 6 4 6 3 3 6 8 8 8 7 7 7 6 5 6 7 7 7 8 9 11 13 12 13 13 13 10 13 16 16 16 15 13 10 9 11 12 11 11 11 9 9 9 10 10 11 10 10 9 9 9 8 8 8 8 8 9 9 9 9 8 8 6 7 6 5
6 9 6 6 5 6 5 6 7 5 7 2 7 6 1 2 2 2 5 5 2 3 7 3 3 7 8 9 8 7 7 5 2 3 6 8 9 7 7 6 8 8 9 12 11 10 9 11 13 16 16 16 15 13 11 11 11 11 12 11 10 10 10 10 10 10 10 10 10 9 8 8 8 8 8 8 9 8 8 8 8 8 7 7 6 6
7 5 4 9 5 7 7 8 6 7 2 3 4 4 5 2 2 2 5 5 3 3 2 1 5 7 7 8 9 7 4 2 1 1 5 9 9 9 7 5 7 9 9 10 12 11 11 12 13 15 15 17 15 16 14 13 12 11 11 12 11 11 11 11 10 10 10 9 9 9 9 8 8 7 7 8 8 8 8 8 8 8 7 7 7 6
10 8 8 9 8 6 8 7 8 4 2 5 6 5 5 2 3 3 7 1 3 3 3 3 4 6 7 6 6 5 3 4 2 2 4 8 9 10 8 9 9 9 9 10 10 11 10 11 12 13 14 16 16 15 14 14 13 13 11 12 12 12 12 11 9 8 8 9 9 9 8 8 8 8 6 7 8 8 8 7 8 8 7 7 7 7
9 8 8 9 8 8 8 8 6 4 5 5 6 6 5 3 3 7 6 1 5 5 4 4 5 6 6 6 4 2 3 4 3 3 4 7 8 9 8 8 9 9 9 10 10 10 10 10 12 12 13 13 15 15 15 14 13 12 11 11 11 12 10 8 7 8 9 8 9 9 9 8 8 8 7 6 7 8 8 8 8 8 8 7 7 6
9 7 6 7 10 8 7 10 8 3 6 5 5 4 6 6 6 5 5 3 2 5 5 3 5 6 6 4 4 5 5 4 4 3 5 7 7 8 9 10 9 8 8 9 9 11 10 11 11 12 13 13 14 15 15 14 12 12 11 11 11 10 7 8 8 8 8 8 8 8 8 9 8 8 7 6 6 8 8 8 9 8 8 8 7 7
9 9 9 9 6 5 5 9 7 8 4 5 10 6 3 7 3 3 5 5 4 4 4 4 3 5 5 6 7 8 8 6 6 5 5 7 7 8 9 10 9 9 9 10 12 11 11 11 11 11 12 12 14 14 13 14 14 12 11 10 11 9 9 8 9 9 8 8 8 8 8 8 9 8 7 6 7 8 8 8 9 9 8 8 7 7
5 11 8 7 4 8 9 9 6 3 7 9 8 2 7 0 4 2 1 4 3 2 3 4 4 4 5 7 8 8 8 8 7 6 7 7 7 8 9 9 9 8 9 9 10 10 10 10 10 10 12 11 13 13 13 13 12 14 13 13 9 8 8 10 10 9 9 8 8 8 8 9 9 9 7 7 7 7 8 8 8 8 8 7 7 6
5 4 3 6 6 8 4 3 6 3 6 6 2 3 3 5 2 1 2 2 2 4 1 2 5 6 6 8 9 9 8 7 7 8 7 8 8 9 9 9 9 9 9 9 10 10 10 10 12 11 12 11 13 12 12 12 13 15 15 10 10 10 9 10 11 10 9 9 8 8 8 9 9 9 8 7 8 8 8 9 8 8 7 7 7 7
2 1 1 2 4 5 5 4 4 5 4 5 3 3 3 5 3 0 2 1 3 3 1 2 4 6 7 9 9 8 7 8 8 7 7 8 8 8 8 9 9 9 9 9 10 11 10 10 11 12 11 10 11 11 11 11 12 13 13 11 13 12 10 10 11 10 10 9 8 9 9 10 10 9 8 8 8 8 8 8 8 8 7 7 7 7
4 4 4 3 5 7 2 5 5 6 6 4 5 4 2 2 3 1 0 1 2 1 3 3 2 5 7 8 7 7 8 8 8 7 7 8 8 9 9 9 9 9 10 10 10 11 10 11 11 11 11 11 11 10 10 10 10 11 11 11 13 13 12 11 10 9 9 9 9 9 9 10 9 9 8 9 8 8 8 8 8 8 8 8 8 7
6 4 4 4 8 4 4 8 5 6 4 3 3 5 5 4 3 2 1 2 2 2 2 4 4 5 7 7 7 8 8 8 8 8 7 8 8 8 8 9 9 9 9 9 11 11 9 9 10 11 11 10 11 10 10 9 10 10 11 11 12 13 12 11 10 11 11 12 10 9 10 9 8 8 8 9 9 8 8 8 8 8 8 8 7 7
6 8 4 6 4 5 6 5 6 6 5 6 4 1 2 3 4 3 2 2 3 4 4 3 1 4 5 7 8 8 8 8 8 8 8 8 9 8 9 9 9 9 10 11 11 10 10 10 10 11 11 10 10 10 10 11 10 9 11 11 12 12 12 11 11 11 12 11 8 8 7 8 9 8 7 8 8 8 8 8 8 8 7 7 6 7
9 6 7 8 5 6 5 7 10 6 6 7 7 7 5 3 2 3 3 3 3 4 4 5 5 5 7 8 8 7 7 7 8 8 9 9 9 10 10 10 10 11 11 10 10 10 9 10 10 11 11 10 10 11 11 12 10 10 10 11 11 11 11 11 11 12 10 9 8 8 8 8 8 8 8 8 8 8 8 8 7 7 7 7 8 7
6 8 7 7 7 5 6 9 10 1 3 6 7 7 6 5 4 4 4 4 4 5 5 6 8 8 8 8 6 7 7 8 9 9 10 9 10 10 10 11 11 10 10 10 10 10 11 12 13 12 12 11 11 11 11 11 11 11 11 11 11 11 11 11 10 10 8 9 8 8 8 8 7 8 8 8 8 8 8 7 9 13 14 11 11 9
Wind_Direction
214 238 227 232 239 241 238 248 283 332 304 293 277 273 278 289 270 252 293 135 194 265 263 273 274 281 287 303 192 189 182 190 199 194 196 199 196 193 196 200 198 198 203 190 188 181 172 165 164 164 159 156 152 148 142 149 164 144 154 146 144 142 151 155 156 162 156 157 154 162 159 144 141 128 122 108 81 69 70 48 40 26 38 35 38 40
223 244 246 252 254 291 344 338 281 269 271 273 281 276 276 265 268 313 337 123 184 268 300 301 292 286 290 277 221 182 188 197 199 198 198 198 197 195 198 198 197 198 198 189 183 176 166 163 160 162 158 154 154 151 142 147 168 156 148 150 151 150 162 157 163 159 162 162 170 168 156 151 142 144 153 127 110 88 88 72 39 39 38 33 37 40
229 238 246 248 256 265 271 271 264 261 263 256 262 272 270 262 288 284 283 130 192 249 292 309 298 295 289 282 227 187 198 209 209 205 200 197 197 194 199 199 192 194 193 189 182 173 169 161 162 165 159 162 159 157 157 155 165 156 153 156 156 151 155 164 165 169 165 169 165 169 142 157 141 140 109 100 93 95 78 67 52 38 30 22 49 41
239 239 244 236 178 243 237 245 248 252 251 260 253 247 252 273 282 279 114 191 174 273 315 321 299 295 286 273 265 198 211 214 213 213 207 199 199 197 195 196 190 191 188 187 181 175 169 161 167 165 164 163 160 159 168 168 164 159 162 162 157 152 158 173 169 174 165 160 151 148 135 117 158 126 115 117 118 108 110 84 60 45 40 28 37 37
244 79 54 61 245 243 255 242 243 245 253 242 249 262 267 264 261 279 301 333 270 243 263 285 289 287 300 345 259 209 211 223 214 213 213 205 204 201 195 196 192 190 185 183 181 175 169 168 169 171 165 163 163 171 178 176 161 166 169 165 161 165 166 166 170 168 158 153 150 136 110 106 110 132 147 149 137 125 107 104 70 63 51 43 34 31
251 244 162 178 235 245 250 247 235 252 254 255 247 253 266 272 280 279 283 291 269 263 173 293 303 296 326 294 282 151 193 211 209 209 211 205 198 198 196 193 190 189 186 183 182 177 170 167 164 169 166 170 166 181 177 168 160 166 171 172 168 167 168 171 166 160 161 162 153 146 134 147 166 165 170 165 138 138 116 82 99 81 58 52 63 55
256 233 187 248 241 245 247 255 258 241 256 257 254 244 250 259 268 278 281 273 278 284 118 224 285 299 304 304 324 170 204 213 203 213 213 205 199 198 197 193 188 184 182 182 178 175 169 166 165 169 172 173 169 185 165 158 169 173 177 176 170 167 169 165 161 167 168 163 148 146 147 155 170 172 145 118 114 107 113 110 83 74 64 43 43 57
227 233 241 237 246 246 246 243 232 226 250 255 274 293 258 262 260 264 271 272 275 282 214 229 266 289 292 293 20 207 249 235 218 214 215 211 205 203 200 193 188 182 178 177 176 173 170 167 168 172 175 172 172 167 158 166 175 175 174 172 168 166 157 149 157 171 169 154 141 143 150 157 186 173 134 134 121 115 115 122 120 102 77 54 49 71
191 223 231 239 236 243 244 249 255 204 240 258 231 305 273 267 273 279 271 274 280 301 283 247 138 278 283 275 256 252 263 261 240 220 216 212 209 206 203 199 191 183 177 174 175 174 171 169 170 174 173 170 168 164 167 177 178 171 164 166 168 164 150 156 167 167 161 140 140 144 153 166 188 135 143 138 132 131 128 120 105 70 75 92 87 68
190 260 260 257 254 242 244 249 247 213 244 244 265 271 282 282 275 268 268 271 271 267 266 277 243 271 276 287 271 184 257 317 309 302 284 213 204 203 204 203 194 182 178 177 175 171 169 168 171 174 166 168 166 159 174 179 173 164 158 159 161 156 157 163 163 163 152 138 145 148 168 169 156 151 149 145 132 131 142 132 127 115 61 108 113 108
51 122 40 256 242 256 272 268 267 242 239 297 294 251 226 235 241 231 258 269 273 255 267 272 275 262 286 288 289 291 306 317 292 279 168 206 194 198 203 199 193 181 177 176 172 167 165 166 166 168 165 170 168 168 175 169 162 157 162 162 163 156 161 163 158 158 147 146 139 155 180 170 158 158 155 144 147 146 152 158 139 123 120 100 100 96
239 221 225 223 243 259 274 262 219 247 253 233 238 243 252 234 224 245 241 230 257 261 268 277 267 247 267 265 274 272 297 290 302 283 267 180 189 187 194 198 191 182 176 171 167 164 161 166 167 169 170 170 173 172 171 164 168 157 164 164 155 153 159 163 161 163 155 153 145 177 189 177 165 166 160 156 154 156 158 149 123 91 106 123 115 95
233 234 234 237 204 236 229 254 217 206 208 222 231 233 235 236 214 243 222 237 245 260 254 203 256 253 243 269 288 296 285 291 358 328 330 312 200 187 188 192 184 178 176 169 164 163 163 171 174 172 171 169 174 174 170 165 164 162 163 162 157 158 162 162 165 169 157 149 171 160 164 172 166 172 164 156 156 155 157 148 134 141 124 126 142 134
233 231 222 226 212 207 232 238 215 207 200 216 220 218 224 231 235 245 244 241 266 255 154 256 212 259 285 285 279 282 319 30 358 352 350 352 245 181 189 184 177 176 175 169 164 163 165 172 178 176 168 172 174 176 167 165 162 165 164 160 160 161 162 165 168 165 160 159 170 169 176 163 168 170 164 159 159 155 144 143 145 150 146 150 119 96
255 210 210 204 214 184 213 225 246 270 191 211 224 226 228 240 242 245 242 252 243 269 137 160 225 265 283 347 328 321 37 334 29 0 33 83 156 172 179 171 169 174 172 164 163 165 169 174 175 173 170 171 174 164 164 169 166 165 165 164 162 161 163 165 162 160 163 169 175 170 166 160 172 166 168 154 143 147 152 157 134 124 160 141 99 89
258 282 23 189 20 168 209 217 228 245 268 227 216 222 238 236 233 256 293 304 312 313 224 177 255 305 292 325 285 202 263 48 31 51 75 92 133 144 153 166 171 172 164 167 169 169 173 173 173 170 167 170 172 160 167 169 168 169 168 167 160 163 162 164 153 152 163 163 168 164 155 168 164 160 145 132 144 147 148 144 134 136 113 110 123 120
208 248 240 148 184 220 233 226 212 222 239 177 200 220 231 251 251 256 251 264 289 268 267 278 270 259 251 243 302 109 306 80 68 69 82 98 120 147 163 169 167 163 161 163 166 170 170 175 175 170 172 172 164 163 170 171 171 170 166 165 152 152 160 162 150 149 160 160 159 157 158 161 162 161 153 152 156 152 140 135 147 153 134 120 132 135
291 305 115 198 215 200 243 240 253 210 245 355 215 213 160 226 286 264 271 185 231 254 263 209 267 284 301 309 103 162 151 108 80 65 87 116 142 164 152 156 155 156 155 157 159 165 170 174 173 164 172 173 158 164 167 167 168 165 166 157 146 158 159 161 158 156 164 159 146 153 158 162 172 162 151 147 149 141 145 150 135 128 151 147 124 117
220 262 250 226 292 116 167 202 208 227 228 241 346 37 204 186 210 206 254 251 250 248 273 244 287 281 287 302 311 29 1 33 56 72 112 137 159 137 136 139 144 145 148 154 163 168 171 172 169 159 170 166 154 164 161 158 159 159 160 160 158 159 163 162 159 159 163 154 151 158 161 163 164 154 145 149 145 148 149 150 143 156 118 126 132 130
188 265 184 113 176 138 169 198 215 185 197 239 267 250 242 292 260 190 207 257 283 286 280 269 226 282 257 0 334 339 24 26 19 74 80 114 133 132 135 140 146 151 154 163 161 166 167 168 165 159 167 165 158 157 154 156 158 159 157 161 160 154 153 157 158 155 150 150 153 151 158 155 148 145 150 155 157 150 153 141 143 141 165 140 138 122
234 204 280 121 122 171 191 194 218 184 183 197 215 236 205 232 351 312 133 244 248 275 276 305 292 291 54 17 18 15 12 9 15 38 113 132 122 133 138 144 146 156 161 163 164 163 168 167 154 149 159 159 145 149 153 158 155 152 157 152 144 151 153 151 152 147 147 147 148 146 153 146 146 152 158 163 155 152 137 133 148 166 128 129 127 134
226 192 246 172 184 222 116 167 316 327 265 204 205 218 218 209 207 220 226 194 256 250 270 270 282 290 71 24 20 15 5 359 36 63 122 123 135 135 137 138 151 158 163 163 167 162 160 160 142 142 153 147 151 154 156 151 150 152 144 139 141 151 146 149 151 150 148 151 146 150 148 144 148 158 164 154 147 140 138 145 147 131 142 135 128 133
228 226 239 241 236 278 61 109 299 280 262 268 242 218 210 226 225 225 262 203 214 238 282 279 291 308 94 48 358 6 357 7 46 109 121 122 125 128 126 133 154 159 159 164 157 150 158 148 137 143 149 152 156 155 149 148 142 137 139 141 145 148 148 148 146 145 146 145 146 148 142 146 156 163 158 147 145 138 139 137 138 149 133 125 134 134
148 222 220 248 276 257 190 92 136 204 223 218 227 261 225 220 215 237 254 342 262 153 245 235 257 303 94 50 13 18 21 48 67 93 112 122 119 124 134 136 149 151 156 166 146 152 149 131 135 142 151 155 157 154 150 140 127 132 139 144 148 146 145 143 143 148 146 147 148 148 150 155 162 164 155 148 144 145 142 138 142 132 125 127 120 114
199 202 250 217 203 192 162 174 167 149 219 221 199 194 228 241 235 275 311 289 270 243 268 278 276 301 103 174 109 64 72 80 94 97 107 105 107 117 130 137 143 149 150 138 140 149 144 133 137 140 151 151 152 150 144 147 132 136 142 145 151 152 149 145 149 151 148 150 150 153 156 159 161 162 155 152 149 152 144 152 145 146 136 138 127 123
231 158 193 212 205 189 188 198 181 172 184 154 58 153 201 219 217 218 231 210 257 294 275 277 280 68 109 141 91 80 96 95 76 84 81 90 106 122 132 140 146 150 141 138 143 149 152 144 140 145 151 153 156 156 152 147 140 145 151 154 151 146 143 148 154 151 151 156 155 156 157 157 159 160 160 158 155 157 159 167 154 156 144 142 135 149
228 205 211 238 261 288 21 38 47 331 179 200 152 207 187 216 222 229 274 264 257 235 262 260 285 312 206 92 61 65 99 90 110 105 104 104 112 120 134 144 152 157 144 156 168 160 156 153 152 151 151 155 157 162 146 143 143 145 151 149 144 144 147 152 150 151 157 159 156 160 160 160 162 161 163 164 159 163 167 175 167 168 147 154 157 181
219 222 213 228 247 302 353 351 13 317 291 90 200 182 203 206 209 228 234 274 339 285 257 24 3 277 318 17 39 44 76 86 88 96 100 108 126 137 141 146 151 151 158 166 182 172 168 154 148 152 151 151 157 163 158 148 146 143 146 144 143 148 149 151 149 153 157 158 157 161 164 164 162 163 163 162 158 166 175 173 163 173 154 164 186 197
211 223 185 218 218 257 289 285 304 246 273 211 226 183 192 188 195 221 236 307 269 263 316 87 335 321 349 29 31 52 51 79 96 101 96 108 122 131 142 156 158 157 161 169 181 169 168 163 155 155 154 154 158 164 164 151 142 140 144 143 148 149 151 147 149 154 157 158 157 163 161 158 159 157 157 153 160 171 180 171 163 181 172 186 196 208
267 225 157 208 192 210 209 238 221 238 190 208 195 213 196 200 203 240 268 287 293 355 354 341 348 323 35 26 43 55 69 79 93 97 107 114 122 134 136 152 149 142 160 172 168 186 177 181 171 160 157 157 163 163 158 147 144 144 142 144 148 147 148 151 154 158 155 155 156 158 154 158 157 152 155 156 166 171 177 179 172 182 185 182 213 198
266 125 186 179 191 178 188 217 218 225 219 212 200 217 213 222 201 193 168 132 240 238 272 266 284 307 55 46 73 85 88 92 95 103 102 111 121 132 141 162 168 170 180 181 176 168 163 180 190 168 161 149 143 151 138 137 142 146 144 147 147 149 154 154 154 156 153 153 152 149 152 158 154 158 157 164 168 171 180 179 178 187 186 202 204 210
225 157 192 190 210 172 188 224 203 217 233 253 220 234 232 226 226 198 243 93 278 320 306 297 283 30 67 87 94 94 101 95 98 107 118 128 132 152 164 178 176 180 184 184 182 180 181 182 181 168 141 122 116 125 110 92 99 113 137 150 150 152 155 154 153 152 150 149 146 152 158 161 156 160 162 169 171 175 179 182 188 190 193 201 194 209
209 190 191 192 224 161 141 228 200 199 219 228 218 225 226 253 20 119 120 208 312 325 283 298 31 59 63 101 107 96 100 95 103 113 123 137 154 168 185 190 184 181 184 184 182 183 186 188 179 152 135 144 146 134 137 128 133 162 163 162 156 151 154 153 152 148 148 147 149 153 161 162 163 165 169 173 176 182 179 187 191 191 200 202 208 204
236 229 207 192 249 144 187 207 202 221 241 273 36 68 136 282 240 264 254 274 75 291 354 9 11 64 88 100 67 89 88 79 95 125 153 164 171 178 183 189 179 178 188 189 189 187 184 179 165 153 144 148 154 152 144 141 145 157 160 162 156 154 152 153 154 152 146 146 149 153 162 168 169 172 174 178 184 184 188 192 193 202 197 203 209 217
211 221 217 202 232 194 179 197 215 232 269 88 165 93 85 244 273 280 303 274 285 295 302 289 357 70 71 67 75 89 91 101 114 149 166 174 172 172 178 179 183 184 191 196 195 193 186 175 163 153 155 155 162 140 126 143 157 155 156 162 156 154 152 155 158 155 150 152 152 156 168 172 172 177 178 183 190 191 198 194 202 204 207 203 209 219
201 211 177 205 225 122 209 196 244 298 87 155 133 130 103 233 203 282 261 243 262 298 293 283 42 93 106 100 97 101 110 119 136 158 189 166 176 169 170 184 192 194 196 197 202 205 189 171 165 155 158 158 162 171 159 158 164 162 155 156 153 151 155 159 162 160 159 160 160 164 172 171 175 182 183 190 194 196 200 198 209 209 208 224 237 211
231 197 202 185 216 226 221 218 229 143 253 190 208 198 204 242 226 250 279 102 66 295 276 280 114 113 109 103 111 123 136 153 154 177 193 182 180 184 179 188 192 197 195 194 201 205 195 170 161 152 154 162 165 164 166 155 153 155 147 153 156 156 158 166 169 168 169 169 169 169 173 173 174 181 185 190 193 200 200 203 209 214 213 222 229 236
208 220 174 222 184 251 244 238 240 239 262 250 83 82 58 65 6 33 278 271 118 325 284 256 121 121 123 125 131 148 175 178 170 156 176 185 184 187 193 177 178 174 173 189 191 186 174 159 160 157 161 164 167 168 164 159 154 154 153 154 157 162 163 168 170 168 171 174 172 176 178 181 183 182 186 185 192 197 204 208 211 212 216 224 232 242
197 228 195 222 178 212 229 256 250 262 329 26 110 107 103 61 123 119 255 268 40 292 220 96 129 132 139 141 145 163 198 208 153 119 164 185 179 188 184 161 151 141 156 174 181 177 177 168 163 160 163 169 170 173 169 164 155 160 163 157 162 170 172 175 174 172 173 172 174 176 183 187 189 192 193 193 198 203 204 207 212 214 211 221 235 237
191 198 200 222 223 222 251 235 257 257 301 125 119 138 126 113 152 250 265 281 153 89 110 123 121 129 128 140 154 162 215 243 185 140 177 181 180 169 170 151 155 162 173 176 181 182 173 164 163 168 166 172 174 168 166 170 165 172 169 166 167 177 179 176 170 166 165 168 174 175 181 185 188 198 201 201 203 209 208 205 212 214 218 222 235 235
196 207 206 218 221 212 223 255 260 254 117 134 134 129 129 164 219 231 230 79 50 80 109 97 97 120 132 151 168 133 56 72 107 123 171 164 165 156 153 155 157 170 174 178 173 163 168 166 169 173 171 169 166 167 168 172 169 173 173 170 175 176 168 154 142 156 168 174 177 178 181 186 189 197 205 208 207 213 213 209 214 218 219 228 237 251
206 213 211 225 235 231 219 248 257 292 80 125 123 136 144 179 214 271 74 201 97 96 114 112 119 134 149 153 128 121 124 120 120 146 145 155 164 156 144 149 155 165 173 173 157 171 162 171 172 171 168 160 167 171 173 168 167 173 173 176 172 164 141 141 161 170 174 177 178 180 181 187 190 199 210 216 215 214 213 214 216 219 225 230 234 242
192 217 210 220 231 263 253 257 255 259 128 189 133 137 160 245 34 87 136 110 88 84 115 127 146 138 164 127 117 131 138 146 145 147 154 158 161 156 151 150 159 160 162 164 167 174 165 167 171 173 173 164 169 175 170 170 171 174 177 185 176 145 132 162 174 180 179 175 177 179 184 188 193 198 211 209 210 210 210 210 214 222 223 228 238 244
125 221 218 218 199 253 236 238 265 40 127 168 176 249 176 20 43 33 359 126 97 105 121 127 126 139 153 139 140 139 146 145 146 154 157 160 158 149 137 146 153 156 158 159 162 163 167 162 167 169 174 171 170 176 171 167 171 184 187 192 163 138 153 170 179 180 179 179 181 181 185 190 196 205 212 203 200 206 211 209 209 214 221 230 237 241
136 271 317 251 152 249 303 8 87 107 133 158 156 71 77 95 94 42 343 25 148 107 98 115 119 141 147 142 146 147 149 153 155 162 162 162 158 151 152 150 153 153 156 157 157 157 165 164 165 167 170 172 172 174 177 177 182 184 191 170 134 159 170 179 184 185 183 182 184 186 191 194 202 205 212 208 205 208 209 212 211 217 222 230 237 244
96 105 241 267 123 105 91 54 117 122 144 147 164 60 100 122 101 265 283 161 71 62 58 52 119 131 141 151 155 158 157 154 157 159 158 157 158 154 146 147 149 150 152 154 156 163 167 163 163 166 169 166 167 170 176 179 184 183 189 160 164 170 173 178 181 185 189 185 186 189 192 196 204 209 207 210 207 213 219 220 216 221 226 229 237 244
137 159 193 203 123 200 157 165 161 136 134 147 126 119 83 115 124 135 149 23 86 88 100 82 90 126 144 153 164 159 156 156 158 159 159 159 155 154 156 150 147 151 156 158 156 161 169 163 165 165 165 163 163 166 169 173 180 181 170 163 170 169 174 182 181 184 185 191 188 192 198 197 204 205 209 212 216 217 217 219 224 223 227 234 239 242
172 189 232 160 166 231 105 144 124 116 103 126 160 158 168 149 132 113 52 71 72 86 87 112 139 137 144 152 157 157 151 154 158 156 162 160 152 150 145 146 146 146 151 152 153 162 161 167 162 160 161 157 160 164 161 171 183 180 178 178 170 170 171 177 183 187 191 194 197 196 198 202 201 210 209 208 215 217 215 221 224 223 224 234 239 246
111 170 201 166 162 101 119 131 131 145 161 172 169 163 79 132 137 133 103 120 147 132 121 120 139 147 153 138 151 150 151 154 157 160 162 147 144 148 147 147 146 146 143 148 155 164 159 165 164 162 154 157 160 161 165 174 181 175 177 177 175 167 170 173 180 192 192 197 193 194 190 197 187 203 211 202 210 222 227 221 219 228 241 236 241 243
160 185 141 182 165 191 180 166 166 177 191 184 188 170 156 133 158 146 169 187 162 142 151 142 132 128 131 140 144 153 152 151 147 154 148 143 144 139 144 144 145 144 144 144 152 157 152 153 152 155 157 160 162 165 167 169 171 174 174 174 172 169 168 169 177 192 194 181 189 184 183 202 199 188 206 207 209 215 219 227 245 267 261 249 238 237
190 152 178 194 219 211 145 156 180 345 56 146 160 141 146 160 171 173 180 179 153 152 156 147 137 132 133 138 150 155 153 147 144 143 145 136 139 141 146 146 145 145 143 148 144 142 143 141 152 159 159 161 160 161 164 168 168 172 169 169 165 167 168 171 179 187 186 181 192 185 188 190 203 195 200 216 211 215 227 229 201 213 231 246 262 267